Theta_e
298 293 291 291 294 294 296 297 294 294 296 293 290 288 287 287 287 287 288 290 290 290 288 287 287 290 293 294 294 290 288 289 289 291 293 293 294 297 301 303 305 307 310 313 313 312 313 316 319 320 321 321 321 322 322 322 322 322 323 322 323 324 325 326 326 327 328 326 326 326 326 325 326 325 325 325 325 324 323 324 326 326 326 326 324 324
297 291 291 294 295 296 296 296 293 293 293 292 288 286 286 286 284 287 289 290 290 290 286 285 286 288 290 293 293 287 288 289 290 291 292 293 293 294 296 299 300 303 305 303 304 307 310 314 316 318 319 318 319 320 321 321 322 322 322 322 323 324 324 325 326 327 327 329 328 327 327 327 325 324 324 325 325 325 324 325 327 327 327 327 326 324
291 290 292 295 295 296 296 296 293 292 290 289 288 286 285 285 286 288 287 288 289 289 288 286 286 287 290 293 294 289 290 290 291 292 293 293 293 292 292 294 297 298 299 299 301 304 308 310 312 316 318 320 321 321 321 322 322 322 322 322 322 323 324 325 326 326 326 327 327 328 326 327 321 320 324 326 325 325 326 326 327 327 327 327 327 326
287 290 293 294 295 294 292 295 294 293 291 288 286 284 285 286 285 286 289 288 289 288 286 285 284 287 290 291 291 291 289 290 291 291 293 293 293 293 294 294 295 295 297 299 300 300 303 307 310 313 316 318 320 320 320 320 321 322 321 322 322 323 324 325 325 324 326 325 325 323 321 323 324 320 316 319 318 323 323 324 324 324 325 326 326 326
290 292 295 294 294 294 292 292 293 291 289 289 288 285 285 286 286 286 286 288 288 287 287 286 285 287 289 290 291 290 288 289 291 289 290 291 292 295 295 294 294 295 296 297 298 299 300 303 307 311 315 317 318 320 320 320 321 322 322 322 323 323 324 325 324 323 324 321 319 318 315 315 316 315 315 317 318 321 320 322 323 324 324 325 325 326
291 293 295 293 292 293 292 290 291 292 290 289 289 288 286 286 286 286 287 287 285 283 286 287 279 280 283 286 289 292 287 287 288 289 291 291 291 292 292 294 295 295 295 296 297 298 299 301 304 308 311 314 317 318 320 322 322 322 322 322 323 324 324 324 324 324 323 322 323 321 323 320 321 322 319 319 321 318 319 321 321 322 323 323 323 323
293 292 293 292 291 290 291 290 290 293 290 288 289 290 289 289 289 289 287 286 280 281 286 286 283 280 282 286 288 288 287 289 288 288 291 291 291 290 292 294 295 295 295 295 295 295 295 298 300 305 310 313 315 318 320 321 321 321 322 322 323 323 324 324 324 323 321 323 323 323 324 324 323 323 324 320 320 323 321 321 322 323 321 322 323 323
290 290 291 291 290 289 289 288 290 293 290 287 290 290 290 289 290 289 289 287 284 284 286 285 285 279 280 287 289 284 283 286 287 288 289 290 291 291 292 293 294 295 295 296 296 296 296 297 299 302 307 312 314 317 318 319 320 320 321 321 322 322 322 323 323 323 323 323 323 322 323 322 323 323 323 319 319 320 318 321 321 321 320 320 322 323
291 288 290 288 288 288 288 289 291 293 291 290 290 291 290 291 290 289 289 286 284 283 281 284 284 280 278 282 283 284 287 288 288 288 288 291 292 292 293 294 294 295 296 296 296 296 295 296 297 301 303 309 313 314 316 318 319 320 321 320 320 321 321 321 321 321 322 322 324 323 323 322 321 321 319 310 311 316 314 318 315 317 318 318 319 321
287 291 291 292 290 288 288 290 292 293 290 291 292 292 291 290 289 289 286 286 284 282 280 283 283 279 281 279 283 282 283 286 288 288 289 290 292 293 294 294 295 295 294 293 294 295 295 295 296 298 300 304 310 313 314 316 317 318 319 319 319 320 321 321 320 320 321 322 321 322 322 321 320 315 307 308 310 313 310 316 313 314 314 314 315 316
287 290 294 291 290 290 290 290 292 293 292 292 291 290 290 288 286 285 284 284 284 277 282 284 282 282 278 281 286 286 286 286 287 288 288 289 290 291 292 293 295 295 294 293 293 293 294 293 293 294 298 301 305 309 312 313 315 317 318 318 318 320 320 319 320 320 320 322 322 322 321 321 320 315 314 311 310 309 307 313 310 309 312 311 313 312
284 287 289 288 290 288 291 288 291 293 291 293 290 287 289 286 287 285 284 284 279 279 281 280 281 281 278 279 282 286 284 282 290 290 291 292 292 293 291 290 291 291 291 291 291 293 293 292 291 292 295 298 302 305 309 311 312 313 315 317 317 317 318 318 318 318 320 321 321 321 321 321 320 316 315 315 315 309 310 312 311 308 306 305 307 310
283 284 285 287 290 292 287 289 288 291 291 291 289 288 284 280 282 278 281 278 279 278 279 277 280 280 280 284 285 285 285 285 283 286 289 290 290 290 290 289 289 289 289 290 291 292 292 293 293 293 295 297 300 305 308 309 311 312 313 315 316 316 316 316 317 317 319 319 320 321 320 320 319 317 316 316 316 312 314 312 312 307 308 304 306 309
281 281 284 286 288 290 291 286 282 285 289 289 287 285 283 278 277 276 278 274 276 280 280 280 281 280 284 281 287 290 294 293 291 288 287 288 289 290 291 290 289 290 290 292 292 292 292 293 293 293 294 296 299 302 306 307 309 311 312 313 315 316 315 314 315 317 317 318 319 320 320 320 318 316 316 316 316 312 313 312 313 311 310 308 313 311
275 277 283 285 282 287 290 290 289 287 289 289 290 288 285 282 277 275 277 277 278 280 279 280 279 279 279 284 284 287 289 288 286 286 287 287 287 288 288 288 289 290 291 292 292 293 293 293 293 294 294 295 297 300 302 304 307 309 310 311 313 314 312 313 314 315 317 317 317 318 319 319 317 317 316 316 315 312 311 310 312 312 312 312 310 312
281 279 282 286 286 288 288 288 290 288 288 290 290 291 283 284 283 278 275 277 274 276 276 276 281 281 284 284 286 284 285 286 287 288 286 288 288 287 289 291 292 293 293 292 292 293 294 294 294 294 294 295 296 297 299 301 304 306 309 310 312 314 313 312 312 315 316 316 316 316 316 316 315 313 314 312 309 310 311 310 312 311 310 310 308 306
280 279 283 286 285 288 289 289 288 291 281 286 287 284 286 287 285 278 277 277 276 273 275 276 279 283 283 286 291 283 282 287 286 286 286 287 288 287 290 292 293 293 293 292 292 293 293 292 292 293 293 294 294 296 298 300 301 304 306 307 309 310 309 310 311 314 315 315 314 314 315 314 313 313 313 312 309 309 308 308 309 309 307 307 307 303
282 278 283 283 284 286 284 286 288 288 287 286 283 286 287 288 287 284 278 274 274 272 274 275 280 279 279 281 283 283 284 286 287 288 287 286 286 287 291 292 293 294 293 292 291 290 291 291 292 293 292 292 293 294 294 296 296 299 302 305 307 307 307 308 310 312 313 314 313 313 313 313 314 313 312 311 309 307 306 306 307 306 306 306 305 303
285 277 283 283 283 286 285 287 287 288 287 289 286 290 288 281 281 281 280 276 272 270 272 272 276 276 281 283 283 284 284 285 289 289 287 289 287 288 290 291 291 290 291 291 291 291 291 291 292 292 293 292 292 292 293 294 295 295 296 299 304 306 307 307 308 310 311 313 313 313 312 312 311 311 311 309 308 307 308 307 307 308 306 302 300 299
283 274 278 283 284 285 285 285 281 284 286 287 287 286 286 284 281 278 280 275 277 275 269 274 271 280 282 281 282 288 290 289 288 287 289 288 289 289 290 291 291 291 291 291 292 292 292 291 290 291 292 293 294 293 294 294 293 296 297 298 300 302 303 304 306 307 310 311 311 309 308 308 309 309 309 307 307 307 308 307 307 305 303 302 299 299
283 280 273 281 284 284 281 283 282 284 281 283 283 282 285 284 285 284 282 280 278 270 269 270 273 279 281 284 286 288 289 292 294 289 287 288 290 290 290 290 290 290 291 290 290 292 292 292 291 290 290 291 291 292 293 295 296 296 296 297 299 303 304 305 307 307 310 309 309 308 308 308 308 307 307 306 307 307 306 306 304 305 302 297 296 294
280 281 277 280 282 280 280 281 283 286 288 286 285 284 286 283 282 279 278 279 276 278 273 268 276 282 283 282 287 288 289 290 287 285 287 289 289 290 290 290 289 290 290 290 289 289 291 290 290 290 291 292 293 294 295 296 296 295 295 297 299 303 304 305 305 307 307 308 308 308 308 307 307 307 307 307 306 305 304 303 302 299 297 297 291 294
283 280 280 274 279 283 283 285 282 284 285 284 286 285 286 286 283 278 275 274 275 278 273 272 270 281 287 285 285 287 287 286 285 285 287 288 289 290 290 289 288 288 289 290 290 289 288 287 288 289 291 293 294 295 294 295 298 297 295 296 298 302 303 305 305 306 307 307 307 307 307 306 305 305 305 304 302 301 300 298 297 297 297 294 291 290
289 279 277 273 276 279 281 282 283 283 286 285 284 282 283 284 284 283 280 276 279 275 276 275 274 281 288 285 286 286 284 281 281 282 285 287 289 289 289 289 288 287 287 288 288 287 288 286 286 288 291 293 293 294 296 298 298 298 297 298 299 301 302 302 304 305 306 306 305 304 303 303 302 302 301 301 298 297 295 295 295 295 295 292 291 290
282 279 281 270 271 274 278 283 283 283 283 281 280 283 282 283 283 282 281 281 279 279 278 276 276 278 285 283 283 283 283 284 284 283 284 286 288 289 288 288 288 288 288 288 289 289 288 287 288 290 292 293 292 292 295 297 298 298 297 297 299 300 300 301 302 303 303 303 301 301 301 300 300 300 299 297 295 293 292 293 293 293 293 291 291 290
286 282 283 276 274 272 269 271 277 280 281 281 279 284 284 287 283 282 279 280 279 282 282 279 281 282 285 283 283 282 282 286 285 284 283 285 286 287 287 287 287 287 289 289 289 288 290 290 287 287 288 289 288 291 294 295 295 295 295 296 296 298 297 298 299 301 301 300 300 299 298 298 298 298 296 293 292 292 292 292 292 292 291 292 290 288
283 283 286 285 282 280 282 281 283 284 282 282 282 284 284 285 285 286 283 278 280 280 280 284 285 282 283 284 283 285 283 285 289 286 286 286 286 286 285 286 287 289 289 289 289 289 287 288 289 289 288 288 287 286 290 293 294 294 295 294 294 296 297 296 298 298 299 299 298 297 296 296 296 295 293 292 291 291 291 291 291 291 290 289 289 287
282 283 285 286 285 285 283 281 283 288 284 285 283 283 284 284 284 283 282 282 281 278 279 285 285 284 286 286 287 289 291 289 288 286 285 285 287 288 286 286 289 289 289 287 289 290 291 291 288 288 289 288 288 287 288 290 293 294 295 295 294 294 295 295 297 298 298 297 296 295 293 292 292 292 292 291 290 290 290 290 290 290 288 288 288 288
287 284 285 284 284 281 280 283 285 286 286 284 285 284 283 284 283 282 284 286 283 283 282 283 283 285 285 287 289 290 291 291 292 293 289 287 286 285 285 287 288 291 292 292 293 292 291 291 291 290 288 288 287 288 287 289 290 291 293 293 293 294 295 294 296 296 296 295 295 292 291 290 290 290 290 290 290 290 289 289 288 287 287 287 287 287
287 282 282 285 283 282 281 282 284 285 283 283 284 285 286 285 284 285 286 287 286 285 287 287 285 284 285 286 289 292 292 291 288 286 286 287 290 288 286 287 289 290 292 294 294 293 292 292 290 289 289 287 288 288 287 288 290 292 293 293 292 294 292 293 294 295 294 294 292 290 290 290 290 290 290 290 290 289 288 288 287 286 287 286 286 286
286 278 285 281 279 279 281 281 282 282 283 282 283 284 285 286 286 286 286 286 286 286 287 286 285 286 288 287 288 288 286 285 287 288 290 291 290 289 288 288 290 291 292 293 293 292 291 290 289 288 288 289 289 289 289 289 289 291 292 292 291 292 291 292 293 293 293 293 290 290 289 289 289 289 290 290 289 288 287 287 287 287 286 285 285 286
286 276 278 278 278 274 278 280 279 278 280 280 281 283 284 284 282 284 283 285 284 285 286 284 283 285 285 288 287 288 287 288 291 292 292 292 292 288 286 287 288 290 291 292 293 292 290 290 290 290 290 290 290 290 290 290 289 289 291 291 292 291 290 292 292 292 292 291 289 289 289 289 289 289 289 288 288 287 286 286 286 286 286 285 285 284
284 280 278 277 278 274 274 276 279 279 279 278 281 284 285 284 286 286 287 288 288 289 285 283 285 286 286 286 287 288 289 290 289 290 291 291 290 288 289 290 290 290 290 291 292 292 292 292 292 292 291 290 291 291 290 290 289 289 290 290 291 290 290 292 292 292 291 289 289 289 289 289 289 289 288 287 287 286 286 286 286 285 285 285 284 284
286 286 282 282 280 271 272 275 277 278 272 278 289 288 287 286 284 283 285 286 287 287 288 290 290 285 284 285 289 289 288 289 291 293 292 292 291 289 289 289 290 291 290 290 290 292 293 293 293 293 292 292 291 290 288 288 289 289 289 289 288 289 291 291 291 291 289 288 289 289 288 288 288 287 287 286 286 285 285 286 286 285 285 284 283 283
286 287 283 278 279 272 272 277 278 273 277 287 281 285 289 288 287 287 288 288 288 288 289 288 289 284 287 288 290 290 290 292 289 287 288 286 287 290 291 291 291 290 291 291 290 290 292 293 293 292 290 291 290 288 288 288 288 287 287 287 287 288 289 289 289 289 288 288 287 287 287 287 287 286 285 285 285 285 285 285 284 284 283 283 283 283
286 285 276 272 273 272 271 277 272 276 281 282 282 282 285 287 285 286 285 286 285 286 288 288 289 290 290 289 288 287 286 285 285 287 287 287 287 291 290 291 293 292 291 292 292 293 292 292 293 293 293 290 290 289 289 289 288 288 287 286 287 287 288 288 288 288 287 287 286 286 286 287 286 286 285 285 284 285 284 284 284 283 282 282 282 282
287 283 284 276 272 275 272 275 279 281 282 286 284 282 285 283 282 284 281 285 289 289 288 288 289 289 290 291 291 290 285 287 287 291 291 290 290 289 292 293 294 293 293 293 293 293 292 289 290 291 289 288 290 289 289 289 288 288 287 287 287 287 287 287 288 287 287 287 286 286 286 286 286 285 285 284 284 284 284 283 282 282 282 281 281 281
288 286 283 282 273 272 274 269 269 273 274 282 284 282 288 287 289 288 286 286 288 289 290 289 289 289 289 289 288 285 285 287 286 289 292 291 293 293 291 291 292 292 292 292 290 289 288 287 288 288 289 288 289 290 289 288 288 288 287 287 287 287 287 287 288 287 287 287 286 286 286 286 286 285 284 284 284 284 283 283 282 281 281 281 281 280
281 282 286 285 276 271 271 274 274 273 279 282 283 285 287 286 289 285 282 283 283 285 288 289 289 290 290 289 284 285 285 282 284 288 293 292 290 288 290 290 290 290 289 288 287 289 288 287 287 287 287 287 288 287 287 287 287 288 287 287 287 287 287 287 288 287 287 287 286 286 286 286 286 285 285 284 285 284 283 282 282 281 281 281 281 280
283 277 280 276 270 276 278 273 277 276 277 282 283 283 286 286 289 287 275 277 284 288 288 289 289 288 288 285 284 284 285 282 285 290 292 291 286 285 286 288 288 287 287 285 285 285 285 285 287 286 286 287 288 286 287 287 288 288 288 287 286 287 287 288 288 287 287 286 285 285 285 285 285 285 285 284 283 283 282 281 280 280 280 280 280 279
278 275 278 281 280 275 281 276 270 276 279 278 279 283 283 288 289 280 277 281 281 285 284 286 286 289 286 284 286 285 286 291 292 290 284 282 285 287 284 283 282 281 284 284 284 284 285 284 286 288 287 287 286 286 286 287 287 287 287 286 286 286 286 285 286 285 285 285 284 284 283 283 284 284 283 283 282 282 280 280 280 280 280 279 279 279
271 272 271 272 274 277 277 274 277 277 279 283 280 285 286 287 274 280 286 282 283 283 282 285 287 286 285 287 286 289 290 289 289 287 287 289 288 288 285 283 282 283 281 280 282 282 284 284 285 286 286 284 284 285 286 286 287 287 286 286 286 286 284 285 285 284 284 284 283 282 282 282 282 282 282 281 280 280 279 279 280 280 279 279 279 278
281 281 279 280 275 270 268 275 270 275 278 286 286 284 285 285 284 285 284 284 284 286 284 283 286 284 286 286 286 288 288 287 286 286 287 287 287 287 287 284 283 282 282 282 283 282 283 284 284 284 283 282 283 284 285 286 286 286 285 286 285 284 284 284 283 283 283 282 281 281 280 280 280 280 280 280 280 280 279 278 279 279 279 279 278 278
281 280 278 277 279 278 275 275 278 283 285 288 290 287 287 286 286 288 288 290 284 282 284 286 284 284 285 288 286 286 286 286 286 286 285 286 286 285 283 282 281 281 281 280 280 281 281 283 281 280 280 281 281 283 285 287 287 285 285 285 282 282 282 282 282 282 281 280 279 279 279 279 279 279 279 279 279 279 278 278 278 278 279 279 279 278
284 285 283 282 280 282 281 284 283 283 288 290 291 288 292 291 283 283 287 289 288 285 280 284 287 285 284 285 285 284 284 283 286 286 286 286 284 283 284 282 281 280 279 279 279 278 280 281 279 279 278 279 281 281 282 283 286 283 284 281 280 281 281 280 280 280 279 279 278 278 277 277 277 278 278 278 279 278 278 278 278 278 278 278 278 278
282 285 281 286 282 283 284 282 281 280 285 288 286 283 287 292 283 282 285 287 285 285 284 287 285 284 282 282 285 282 284 285 283 283 283 284 284 283 280 279 278 278 277 277 278 277 277 277 277 277 277 277 278 279 280 281 281 283 280 278 279 279 279 279 279 278 278 277 277 277 276 276 276 276 277 278 279 279 279 278 278 278 277 278 278 278
283 280 284 281 280 284 282 282 283 285 285 288 289 285 282 283 287 284 284 285 286 283 282 284 285 285 282 282 285 286 286 283 283 284 283 283 283 282 280 279 278 277 277 278 277 276 277 276 277 276 276 276 276 276 277 277 277 278 277 277 278 278 278 278 278 277 276 276 276 275 276 276 276 276 276 277 277 277 278 278 278 278 277 277 277 277
282 280 285 278 281 284 282 281 282 282 285 286 286 286 287 287 285 285 288 285 282 281 282 282 282 283 282 282 283 283 285 284 284 286 285 283 283 282 280 279 277 277 276 275 275 274 275 275 275 275 275 275 274 273 273 274 274 275 276 276 277 277 277 277 278 277 277 276 275 275 276 276 275 275 275 275 276 276 276 276 277 277 277 277 277 277
282 286 283 280 281 279 280 281 280 285 288 286 286 286 286 288 289 288 286 286 285 286 284 281 281 283 283 284 283 282 283 284 284 283 283 284 282 280 279 278 276 276 275 275 274 273 275 273 273 273 273 273 273 272 272 271 272 273 275 275 275 276 277 276 275 275 273 273 273 273 274 274 274 274 274 274 273 272 272 276 276 276 276 274 273 276
284 284 281 282 279 280 282 283 284 282 280 286 287 289 289 287 285 285 284 285 284 286 287 286 284 280 280 281 283 282 284 286 284 282 282 282 282 279 278 276 274 274 273 272 271 271 271 271 273 273 273 271 271 271 271 270 270 271 272 273 274 276 276 275 274 273 273 272 273 272 272 272 272 272 272 273 273 272 269 274 276 275 275 274 275 277
286 283 283 284 283 284 285 287 288 290 287 287 290 289 288 285 285 285 285 286 285 284 285 286 285 283 283 281 277 281 283 284 284 281 279 279 278 277 278 277 276 274 274 272 272 271 272 271 272 272 271 271 270 270 269 269 269 269 270 272 272 274 275 274 274 273 272 272 272 272 272 272 272 272 272 272 272 272 272 272 274 277 277 276 276 277
Wind_Speed
4 7 8 9 7 9 8 8 3 5 6 6 5 4 7 4 4 3 3 2 1 1 5 6 5 8 12 12 11 3 3 3 4 6 9 8 7 8 8 9 10 11 16 10 8 6 6 9 10 9 8 9 8 9 10 11 11 11 12 10 13 10 9 9 8 8 9 9 7 7 9 9 6 6 6 6 6 6 6 6 7 7 6 6 6 7
3 7 8 5 6 9 8 4 4 3 5 9 6 4 5 1 3 2 2 2 4 3 3 1 2 9 13 12 8 2 4 6 8 9 10 11 10 8 7 9 11 14 6 5 6 6 8 9 9 9 8 8 11 12 11 13 13 12 12 13 12 9 10 10 10 10 9 9 9 7 7 5 5 6 7 7 5 6 6 7 7 7 7 7 7 7
6 9 5 6 6 8 7 5 4 8 5 4 7 3 1 3 2 6 3 3 2 2 7 4 4 8 11 13 12 5 6 6 7 9 9 10 9 8 8 10 12 7 10 7 8 6 8 9 9 9 10 10 13 12 13 13 12 12 12 12 10 10 10 10 10 10 10 8 8 8 6 8 4 5 7 7 7 7 8 8 7 7 7 7 7 7
4 7 6 5 8 9 5 7 5 3 5 6 5 5 7 1 2 5 0 3 1 2 2 0 2 7 9 9 13 8 8 8 8 8 11 8 9 10 14 14 10 8 10 12 11 10 9 9 9 9 10 12 11 12 11 11 13 12 12 11 12 10 10 10 11 11 9 9 7 6 6 6 7 6 5 6 4 6 6 6 5 5 5 6 6 5
4 1 7 8 9 11 9 6 8 5 6 0 4 3 4 1 1 0 3 5 3 2 1 2 6 7 7 11 10 5 5 6 8 5 7 7 8 10 6 4 8 13 13 13 10 9 9 9 12 14 14 11 12 13 12 12 13 11 14 13 12 11 11 10 10 11 8 6 5 4 2 3 3 2 3 4 5 6 6 6 6 5 5 6 6 5
2 2 4 9 7 8 10 9 12 9 7 4 2 4 5 3 2 5 5 7 7 5 2 1 4 8 4 7 11 9 1 4 6 7 11 11 10 7 8 12 10 10 10 13 14 12 11 12 9 7 8 11 12 13 14 13 14 13 12 12 12 11 10 11 10 10 9 9 9 8 8 8 6 8 7 9 9 6 6 6 3 5 6 5 5 5
3 0 4 9 8 6 8 8 6 8 7 6 5 9 5 3 1 4 6 5 4 2 1 2 5 7 3 6 4 5 6 10 5 5 11 10 8 6 10 11 11 12 12 10 11 8 7 11 10 10 12 14 14 15 11 11 13 13 12 11 13 13 11 11 10 11 10 10 10 12 12 11 11 10 8 5 4 7 5 5 6 6 5 6 6 5
3 4 3 3 5 8 7 10 6 11 7 4 3 10 7 3 2 2 2 2 4 2 7 2 3 5 7 11 5 2 4 9 9 8 9 10 8 10 10 12 12 13 12 12 14 14 12 10 12 15 16 14 16 14 11 13 12 13 14 13 13 12 11 10 10 11 12 12 11 11 11 10 11 11 10 7 6 5 6 7 7 5 5 6 6 6
10 8 10 9 5 7 10 3 7 8 6 2 3 10 10 8 2 2 2 1 2 3 8 2 0 2 6 6 2 0 6 9 11 9 8 10 11 11 12 14 14 15 15 12 12 12 12 14 14 14 13 14 12 10 13 13 12 12 12 12 10 12 11 10 11 12 12 11 12 12 11 11 9 8 7 4 5 6 6 6 5 6 6 6 6 6
2 10 12 12 9 9 3 6 8 10 6 1 5 7 5 6 3 1 1 3 3 1 12 6 2 3 11 3 3 1 3 9 8 9 9 10 12 12 13 13 13 11 9 7 10 10 9 10 10 9 7 6 12 11 10 9 9 9 10 12 12 13 11 10 11 11 12 12 11 11 11 12 10 6 4 5 5 5 5 6 6 6 5 5 5 5
1 4 4 5 9 5 7 5 9 9 3 3 6 6 2 4 3 3 3 1 3 5 11 4 5 3 9 5 9 8 8 6 7 7 6 6 8 9 10 12 11 10 7 7 8 10 11 9 9 7 11 13 7 7 8 9 9 9 10 11 12 13 10 10 12 12 13 12 12 12 12 13 12 9 8 7 6 4 4 6 5 5 5 4 5 4
3 2 4 3 3 3 4 3 1 6 7 8 2 3 5 1 2 4 2 2 1 12 1 4 3 6 10 4 6 7 3 3 8 9 11 10 11 12 7 7 8 7 7 7 7 10 10 7 8 6 11 11 10 7 9 10 8 8 9 10 12 11 11 10 11 12 13 12 12 12 12 13 11 10 10 10 10 9 9 8 7 4 3 3 3 3
1 4 2 2 3 11 4 7 0 4 3 5 5 5 9 2 3 3 1 4 11 8 0 3 4 1 18 8 7 5 7 6 5 8 10 9 9 9 7 7 6 5 5 7 8 9 8 9 10 10 12 7 8 11 11 11 10 10 10 12 13 13 11 11 11 13 13 12 13 13 12 11 10 10 11 10 10 9 9 7 6 6 6 4 4 5
5 1 1 2 4 3 10 10 5 5 8 9 10 8 8 6 5 7 6 2 5 4 2 3 1 7 6 4 14 13 13 14 10 9 10 9 10 11 9 5 6 7 6 9 9 8 9 9 9 9 9 9 9 10 11 10 11 11 11 12 14 14 11 10 11 13 13 13 13 12 12 11 10 10 10 9 9 9 8 8 8 9 9 9 8 8
5 2 6 5 1 2 6 7 9 4 12 11 3 5 5 4 5 6 5 11 8 6 1 3 2 9 3 3 1 8 6 8 5 6 7 7 9 10 8 8 9 11 10 8 9 10 10 9 7 7 7 7 7 7 7 7 9 8 10 11 13 11 10 11 12 11 13 12 11 11 11 10 9 10 10 9 8 9 9 7 8 7 6 8 6 7
7 1 3 2 1 7 9 4 6 6 5 4 5 1 3 11 5 6 3 1 3 2 2 3 8 2 5 4 8 5 7 7 7 8 5 10 8 4 8 10 10 9 9 6 7 9 9 7 6 6 6 6 6 6 6 7 7 8 10 10 12 14 13 13 12 12 12 12 10 10 11 11 10 8 8 7 6 6 8 9 9 9 8 7 7 5
3 5 0 2 4 9 12 7 4 8 7 5 6 11 8 2 4 3 1 0 1 3 9 3 8 8 6 7 11 3 2 7 4 6 6 9 8 3 8 9 9 11 9 6 7 7 7 5 5 5 5 5 5 6 8 8 8 10 10 9 11 10 7 10 11 12 10 10 10 11 10 9 9 10 10 9 9 8 7 7 7 8 7 6 7 7
11 3 1 3 4 0 1 2 5 4 4 7 9 8 3 1 2 2 3 1 1 5 7 3 11 5 2 12 2 3 6 8 6 6 6 5 5 6 9 9 9 9 7 5 6 4 4 4 4 4 4 4 4 5 5 6 5 5 6 7 9 8 10 9 10 10 10 11 11 10 11 10 11 10 9 8 9 7 8 6 6 6 7 7 7 8
6 4 1 1 2 1 2 4 1 1 1 8 7 5 9 6 6 1 1 6 3 4 6 3 2 6 10 10 3 4 1 7 11 8 6 9 5 5 8 10 8 6 7 8 7 5 4 5 5 5 5 3 3 3 4 4 4 5 5 5 7 9 9 9 8 7 7 8 9 9 11 11 9 7 7 7 7 8 9 9 8 9 8 7 7 7
1 5 2 1 3 1 2 3 10 6 2 1 2 3 1 3 0 4 7 2 4 6 1 7 4 12 6 7 5 9 12 10 8 8 9 7 7 6 6 7 9 9 7 7 7 5 4 4 4 4 4 4 4 4 3 3 3 5 5 6 6 5 5 6 8 8 9 9 8 7 6 6 7 8 9 9 9 8 9 9 9 9 9 9 7 7
2 1 5 1 1 4 3 3 8 9 7 3 3 5 3 1 1 3 1 4 3 3 3 2 7 7 4 8 11 11 11 12 16 8 3 6 8 8 6 8 9 8 8 7 5 6 5 5 4 3 3 3 2 2 2 3 4 4 4 5 6 8 8 9 9 9 9 8 8 9 10 9 8 8 7 8 9 10 9 8 9 9 9 8 7 7
3 1 9 2 3 4 5 2 5 11 10 8 9 9 10 8 7 5 8 2 1 1 6 1 13 7 4 2 8 6 8 9 3 0 5 9 8 7 7 7 6 9 7 6 5 5 5 4 4 3 2 1 1 1 2 3 2 3 4 5 6 6 8 9 8 9 8 8 8 9 9 9 7 9 8 9 9 9 9 9 8 9 8 8 6 7
5 3 8 4 5 6 2 2 1 1 1 3 7 8 8 7 3 3 5 4 2 4 2 2 1 13 6 7 6 7 7 6 6 1 8 7 7 7 8 7 7 6 8 6 5 5 4 4 3 3 2 2 2 2 2 2 4 4 4 3 4 5 6 6 7 6 7 8 8 9 8 9 8 8 10 10 8 9 9 8 8 8 10 8 7 4
6 4 5 2 2 3 2 1 1 1 1 0 2 1 4 9 7 7 4 4 6 1 1 1 5 7 1 1 9 9 7 3 2 3 7 8 8 7 7 7 6 6 5 4 4 4 4 3 2 1 2 3 3 3 4 4 3 3 3 4 4 5 5 4 4 5 6 7 7 8 8 9 8 9 9 10 8 9 7 8 8 6 8 8 7 8
5 2 10 3 3 3 4 2 2 1 1 1 2 2 2 2 1 2 3 2 3 7 6 4 16 6 1 3 5 5 4 5 5 5 6 8 8 6 7 6 5 5 5 4 4 4 3 3 3 4 4 4 4 4 4 4 4 4 3 3 5 4 4 4 4 5 6 7 8 7 9 8 8 9 8 8 7 8 8 8 7 7 9 8 8 7
4 6 10 8 8 8 4 7 13 11 7 2 2 7 9 13 10 7 7 7 9 11 13 9 16 1 1 3 3 6 5 6 4 6 3 7 7 9 8 6 5 4 5 5 5 4 5 4 3 4 4 3 3 3 3 3 3 3 3 3 3 4 3 3 3 4 7 7 9 8 8 8 7 8 8 8 7 8 8 8 7 8 7 8 9 7
4 2 7 10 14 15 17 7 2 12 5 9 8 9 7 4 6 7 4 4 17 4 10 20 15 3 4 4 3 3 5 5 8 1 3 5 7 8 7 6 5 5 5 5 5 6 4 5 6 5 4 4 3 3 3 3 4 3 3 3 3 4 4 4 5 5 6 7 7 8 7 7 7 8 7 7 8 7 7 7 7 8 8 6 9 9
4 6 12 13 12 6 3 3 7 14 12 10 6 9 7 7 8 11 12 19 6 5 14 11 3 11 9 6 8 10 10 7 6 6 4 6 7 5 5 5 6 6 6 4 6 7 8 7 5 5 6 5 5 4 4 3 4 6 6 6 4 5 5 5 6 7 7 7 6 7 7 6 6 7 7 7 7 7 7 7 7 7 7 7 8 8
9 10 11 9 9 4 1 8 11 9 10 9 11 10 12 13 12 17 22 15 4 10 22 4 8 10 6 8 7 10 12 11 11 11 7 6 8 5 5 6 7 8 8 7 9 7 6 8 6 6 6 6 4 6 6 5 5 4 4 5 6 6 6 6 6 6 6 6 7 6 6 6 5 6 8 8 8 8 8 7 7 7 7 6 7 6
6 5 3 9 6 4 0 3 3 10 4 5 10 14 17 16 21 22 20 14 14 18 20 11 11 9 3 5 10 14 11 5 5 5 5 7 9 6 5 6 7 8 9 10 10 6 6 8 7 7 6 6 8 7 6 6 7 7 8 7 6 6 5 5 6 7 6 7 6 6 6 7 7 7 7 8 8 8 8 8 8 8 8 7 7 7
4 1 5 3 4 4 1 3 3 3 6 6 8 11 17 20 21 20 15 13 13 18 21 13 14 22 7 7 8 6 4 4 6 8 9 9 8 8 7 6 8 9 10 10 8 7 5 6 7 6 7 9 9 10 9 8 6 5 6 7 7 6 5 5 6 6 7 7 6 7 7 7 7 8 8 8 8 8 9 9 8 8 8 8 8 9
4 1 1 5 5 3 0 5 3 4 2 1 7 14 19 17 13 9 8 8 9 21 14 8 15 20 2 9 3 2 4 7 11 11 9 8 10 7 6 8 9 11 11 11 10 7 6 7 8 10 12 11 10 9 8 8 7 6 7 7 8 7 6 6 7 7 6 7 8 8 8 7 8 8 8 8 9 9 8 8 9 9 9 9 9 8
6 6 5 5 7 5 1 4 7 5 1 6 15 25 17 8 13 10 14 17 22 18 11 14 22 1 6 4 5 6 11 10 9 9 11 11 8 6 8 9 11 10 10 11 10 9 8 10 11 12 11 8 9 10 9 8 8 9 7 7 6 7 8 8 8 8 8 7 8 8 8 8 9 8 8 8 8 8 8 9 9 9 10 10 8 8
10 12 8 6 8 3 1 5 4 5 6 17 18 6 13 18 13 9 15 19 15 8 15 14 12 2 3 6 11 11 9 10 11 13 10 9 8 7 8 9 10 11 9 9 9 10 10 9 10 10 10 10 9 8 6 7 7 7 6 7 6 8 8 8 7 7 8 7 8 8 8 8 8 8 8 7 8 8 9 9 9 8 7 8 8 9
16 14 9 3 7 6 5 8 7 6 17 14 6 3 11 12 14 23 26 16 14 15 16 15 12 4 9 10 10 9 10 11 7 7 7 6 5 7 9 11 11 11 12 11 9 10 12 12 11 8 7 10 8 6 8 7 7 6 6 6 7 6 8 7 8 7 8 9 7 7 8 8 8 8 8 8 8 8 8 9 8 8 8 8 9 10
13 10 5 3 5 5 3 8 8 20 6 5 1 1 2 7 8 8 11 8 7 10 16 18 18 14 13 13 9 7 4 4 7 8 7 5 6 10 11 13 13 11 11 12 12 12 11 11 11 11 10 4 7 8 8 9 8 9 8 7 7 7 7 9 9 9 8 9 9 9 9 10 9 9 9 9 9 9 9 9 9 10 8 8 7 6
12 8 9 4 0 8 5 7 12 8 12 14 6 3 7 7 6 10 9 15 18 16 14 15 15 12 13 14 14 7 2 2 7 13 6 7 11 13 15 16 13 12 12 13 11 12 8 4 6 7 4 6 8 10 11 10 10 10 11 11 9 9 8 8 10 10 10 10 10 10 10 10 11 10 10 10 10 10 10 10 9 8 7 9 8 9
14 16 6 11 3 6 8 5 2 4 11 22 4 4 7 8 10 9 8 16 5 9 12 14 14 13 15 13 9 2 3 1 9 11 10 11 15 15 10 11 13 12 12 10 6 6 6 5 2 2 5 6 7 9 8 9 10 9 10 10 10 11 10 9 11 10 11 11 11 10 10 10 11 11 11 11 12 11 9 7 6 8 7 10 11 9
5 2 10 14 6 4 4 9 10 10 17 2 8 9 8 6 12 6 3 15 2 9 9 14 16 16 16 14 4 7 4 2 8 10 14 12 10 6 8 10 10 11 9 7 6 9 6 5 4 4 4 5 7 5 6 8 10 10 10 10 11 11 12 13 11 12 12 11 10 9 9 9 9 10 11 11 10 10 11 10 10 7 7 7 7 8
8 4 7 5 5 9 10 6 12 6 6 4 7 6 10 8 11 9 4 10 5 15 16 15 15 12 12 6 6 6 8 6 9 10 9 10 5 3 4 6 7 7 8 5 5 5 5 2 2 2 4 7 7 5 7 8 9 9 9 9 7 10 13 12 10 6 5 6 8 7 8 7 9 9 10 10 8 8 8 8 8 9 8 7 7 9
7 1 6 17 10 5 9 8 3 7 3 4 5 4 7 7 11 7 13 8 3 0 1 6 8 11 7 6 8 7 12 11 10 8 4 4 6 6 1 1 3 3 6 6 6 5 3 3 5 6 7 6 5 7 7 8 8 9 7 7 8 12 6 3 4 6 6 7 7 7 7 6 7 9 7 6 8 8 7 7 9 9 9 10 8 8
0 3 3 5 6 11 8 5 10 4 6 8 1 10 9 9 1 15 7 3 6 5 5 7 9 8 8 11 9 10 9 10 8 5 7 9 7 10 6 4 4 4 2 2 3 3 2 1 2 2 0 2 6 6 7 8 8 7 6 8 10 6 4 5 6 6 6 7 7 7 7 7 6 6 7 7 8 9 8 6 7 8 9 8 9 10
17 13 13 13 4 5 3 8 1 14 5 10 11 3 5 9 8 6 3 2 5 8 8 4 8 6 9 7 9 10 9 6 5 6 7 8 7 10 9 6 5 4 5 5 4 3 1 1 1 1 1 2 5 6 7 8 8 6 5 7 4 4 5 6 7 7 7 7 7 7 7 6 8 8 7 8 8 10 10 8 9 8 8 10 10 10
4 8 7 5 5 11 8 9 12 6 9 12 21 13 11 4 4 10 8 8 2 4 8 7 5 7 8 8 8 9 8 7 7 8 7 8 9 7 6 5 3 1 2 2 2 3 1 0 0 1 1 1 3 5 6 9 9 7 7 7 5 6 6 7 7 7 7 7 7 7 7 7 7 7 7 8 9 9 10 10 8 8 8 9 10 10
12 12 5 14 8 10 13 14 1 2 11 13 10 5 12 12 5 6 7 8 8 7 4 3 7 6 9 7 3 2 3 6 9 4 2 8 6 5 6 5 3 3 1 1 2 2 1 1 2 2 2 2 1 1 3 3 7 6 7 4 5 6 7 7 7 8 7 7 7 7 6 6 6 7 7 7 9 10 9 9 9 9 7 8 8 8
1 5 2 6 5 4 5 1 1 2 6 11 1 1 7 12 3 2 4 3 3 6 11 8 7 3 3 4 2 3 6 6 4 5 6 7 7 7 3 2 1 0 0 0 0 1 1 3 3 3 3 3 2 1 1 1 2 6 3 4 4 6 7 8 8 8 8 7 7 7 7 8 6 6 6 7 6 7 8 11 10 9 9 8 8 8
2 2 3 4 0 8 12 4 4 6 6 10 8 1 1 1 7 5 2 5 5 3 4 1 2 4 5 7 7 6 7 4 4 7 6 6 7 6 4 5 2 1 1 1 0 1 2 3 3 3 3 2 3 2 2 2 3 4 6 5 5 6 7 8 8 8 7 8 7 7 7 9 8 7 6 5 4 4 5 6 7 8 9 9 9 9
3 4 5 4 7 12 4 3 2 1 5 6 5 4 3 5 6 7 9 2 2 2 2 3 3 2 4 4 6 5 7 5 4 8 6 5 6 5 4 3 3 1 0 0 1 1 2 2 3 3 3 3 2 3 3 4 4 4 6 5 6 6 7 7 7 8 7 7 6 6 6 6 7 8 6 6 6 7 6 6 6 8 10 11 11 11
5 10 7 6 6 1 2 1 2 1 1 5 7 9 8 8 10 8 4 2 1 2 4 3 3 3 5 4 3 4 4 8 6 5 6 6 5 4 4 3 2 2 1 2 1 2 3 3 4 4 4 2 1 3 4 4 3 3 5 5 5 6 7 7 5 5 5 5 6 6 5 5 6 6 7 6 5 3 3 7 8 7 4 0 1 4
10 10 3 5 4 5 8 7 9 8 5 8 11 16 15 8 2 1 2 3 4 7 7 6 5 3 3 3 3 3 5 7 3 3 5 6 5 3 2 2 3 3 2 1 2 3 4 5 5 5 5 3 2 4 4 4 3 3 3 4 5 6 8 8 7 6 6 6 6 5 6 5 6 6 6 7 7 5 2 4 2 1 4 4 2 3
10 8 9 9 9 10 8 12 14 10 6 7 13 12 10 4 6 5 5 7 6 3 1 1 5 4 4 2 2 3 5 5 6 1 4 4 3 3 4 5 5 4 3 3 4 3 4 4 5 5 4 3 3 4 4 4 3 3 2 3 3 4 6 7 7 5 5 6 6 7 7 7 7 6 6 6 6 5 6 3 1 3 3 5 5 5
Wind_Direction
147 159 185 196 184 181 191 198 155 180 161 163 173 179 219 232 297 323 290 297 296 26 248 234 255 245 248 252 258 221 145 221 247 247 242 242 232 225 226 227 231 232 234 232 232 228 222 223 221 219 210 214 214 215 212 211 211 206 205 199 211 203 197 193 195 198 198 201 198 203 204 208 195 192 195 205 202 201 204 199 204 199 196 190 190 187
113 184 205 171 172 171 179 160 143 120 140 158 171 180 233 129 269 273 302 328 303 183 298 37 237 261 265 274 273 84 151 228 217 228 241 243 235 232 229 238 234 235 261 270 252 221 218 222 219 212 212 206 210 216 210 212 212 209 206 208 209 195 198 199 197 197 202 203 202 197 207 195 184 190 201 210 200 203 201 203 201 200 199 194 190 193
189 207 170 172 156 143 158 152 169 153 143 128 159 163 257 278 233 287 294 313 304 138 253 281 262 259 257 260 265 206 211 238 220 207 224 227 238 232 230 238 246 251 250 250 243 227 223 224 218 211 213 214 215 215 210 212 211 210 211 213 207 201 196 201 198 195 204 199 202 198 195 190 191 208 203 207 202 194 200 203 201 197 197 199 202 195
193 225 193 151 138 140 153 177 166 181 171 157 114 148 203 265 78 247 273 346 305 182 245 104 299 279 276 261 261 245 201 237 229 211 231 218 225 226 226 222 226 242 252 248 235 227 221 215 216 212 213 214 211 216 213 210 213 212 214 211 208 204 200 199 200 200 200 195 193 199 188 194 187 186 191 199 191 193 199 210 200 205 193 193 202 202
176 111 160 146 154 151 166 179 183 175 202 277 164 125 138 143 282 150 296 308 278 344 38 337 311 282 244 268 275 259 230 252 256 239 254 249 232 237 252 267 213 225 231 243 244 231 221 215 215 209 211 206 211 213 210 207 209 211 211 209 206 207 204 202 197 196 187 168 165 144 89 122 126 61 151 182 200 195 193 194 195 197 193 201 201 199
222 246 126 146 156 165 161 180 195 176 208 192 241 153 150 130 350 332 331 353 8 341 325 233 9 279 285 260 249 266 339 244 247 235 244 238 234 237 238 236 236 237 233 232 237 227 219 222 227 221 217 212 216 214 212 208 211 210 209 205 207 208 206 205 198 188 179 184 179 172 180 179 186 203 190 199 196 178 185 195 169 186 191 200 208 205
194 104 168 162 163 164 177 193 195 168 186 172 238 149 148 155 55 341 339 37 349 296 309 12 221 278 328 293 254 251 253 248 264 230 248 251 248 236 234 236 235 231 238 238 248 241 217 221 216 217 212 213 215 219 207 207 213 210 208 203 205 206 207 201 194 184 183 190 193 193 196 198 201 210 218 198 181 181 185 170 189 190 186 197 204 208
98 125 133 129 150 171 176 199 198 166 136 212 194 157 153 154 213 268 72 123 236 259 287 182 200 264 287 256 270 317 292 278 278 257 252 258 248 238 235 235 233 234 233 229 231 233 224 222 208 217 214 210 214 211 199 210 208 205 206 203 205 205 204 198 191 188 188 192 193 197 204 205 208 207 213 182 183 171 166 186 194 187 195 195 203 207
148 174 174 173 172 180 205 160 135 160 149 222 195 160 173 176 148 154 57 55 231 345 281 287 335 281 248 274 313 313 268 267 264 264 253 248 247 242 238 240 235 233 234 227 233 232 222 221 219 220 217 217 217 206 208 210 204 203 204 205 204 206 202 199 190 189 191 193 193 197 199 208 215 210 207 170 166 172 173 185 188 191 199 196 201 206
314 176 185 168 166 201 134 142 152 157 146 247 103 76 76 83 89 96 92 31 328 3 263 224 191 249 271 264 278 346 236 249 252 265 255 239 236 236 238 242 244 245 246 240 239 244 233 227 229 228 239 236 218 214 213 214 206 205 200 202 201 207 201 195 191 190 191 193 191 198 201 204 206 196 177 161 173 180 176 192 190 195 194 195 195 203
179 335 154 130 195 179 152 173 159 170 135 121 86 87 73 44 72 28 64 92 3 270 264 146 229 178 294 219 200 201 224 193 234 265 267 263 258 253 246 242 247 250 247 242 243 245 242 228 221 206 213 222 218 209 203 208 204 201 199 201 203 206 197 194 192 186 193 192 194 199 199 202 202 189 176 173 182 169 173 196 190 189 202 191 195 184
30 44 114 250 135 75 108 76 6 156 143 129 129 120 133 351 24 20 335 43 160 255 246 321 129 158 237 293 256 228 263 227 207 221 243 249 249 251 240 247 252 256 259 259 252 255 248 251 238 215 224 216 210 196 202 206 195 195 199 198 205 205 198 193 191 189 195 192 197 201 198 201 200 182 183 188 191 182 180 190 188 185 155 183 178 184
28 161 238 313 271 141 142 120 279 145 149 140 122 135 153 180 138 264 118 233 214 233 157 173 152 61 242 240 284 262 246 263 234 231 242 245 262 271 261 253 258 255 262 261 256 255 251 236 229 220 226 212 201 203 202 197 193 195 196 197 200 207 196 192 188 193 194 193 198 197 198 201 194 188 190 192 192 184 190 184 176 162 176 156 154 183
272 245 192 229 82 238 143 150 159 151 198 173 177 173 154 155 180 215 202 342 317 267 247 110 167 268 289 291 215 236 251 242 240 233 237 247 250 263 267 269 279 271 255 259 259 259 253 240 235 226 223 214 210 208 202 197 193 194 196 197 200 208 191 191 191 195 194 199 198 195 196 197 189 192 189 192 191 184 186 180 182 182 177 172 182 173
138 239 250 140 255 169 158 170 173 136 163 191 124 154 183 157 162 201 182 202 214 225 203 273 72 237 134 248 239 240 267 296 279 247 249 251 250 261 285 289 276 276 266 251 259 254 251 246 236 232 224 219 216 212 207 199 200 191 199 197 203 203 195 192 196 193 198 199 195 195 197 194 188 189 188 193 189 178 178 182 179 182 173 179 178 174
189 151 270 234 227 158 171 188 139 108 129 199 177 130 156 218 116 167 205 218 287 276 284 182 209 196 195 268 276 215 261 277 267 270 276 272 258 269 285 274 268 265 265 250 253 259 255 251 249 239 232 222 214 210 204 203 196 196 203 200 203 203 195 193 192 196 196 196 192 192 192 193 187 187 185 184 180 180 178 176 176 177 178 178 162 151
109 222 272 199 93 163 179 145 181 151 162 188 124 216 205 130 115 92 41 3 85 47 256 151 293 271 299 299 279 334 336 287 281 270 269 273 284 293 264 261 263 259 261 256 241 246 260 262 249 238 230 222 214 208 206 204 198 199 197 199 204 207 194 195 197 195 192 189 186 193 192 186 185 183 184 183 179 175 174 170 174 171 172 155 152 143
144 208 2 100 159 331 104 154 158 183 145 113 200 216 69 109 108 140 245 359 178 205 264 111 236 290 14 279 338 336 317 286 294 275 270 271 287 285 266 268 262 268 268 267 264 258 257 263 268 264 255 239 226 219 216 215 207 207 205 201 202 199 197 198 192 192 189 186 188 187 190 190 188 185 184 175 172 163 156 160 154 144 148 160 149 143
127 80 249 345 130 27 15 96 75 345 356 187 197 197 158 229 229 289 128 253 198 252 275 296 291 253 208 241 345 315 276 295 304 293 299 295 281 263 282 282 279 283 293 280 269 262 252 245 245 242 237 238 234 225 214 209 194 198 209 209 205 204 202 194 193 191 190 186 187 187 188 184 182 180 174 169 159 156 160 161 161 160 152 133 136 132
59 128 311 301 129 191 73 123 194 189 353 64 73 222 263 77 343 137 201 177 121 255 32 284 29 260 174 217 182 254 288 274 262 273 290 294 294 277 274 288 299 305 292 286 285 280 277 269 258 245 237 234 225 224 225 199 180 196 198 192 203 205 192 180 185 183 188 189 183 180 175 181 178 172 166 162 158 163 165 162 155 144 142 150 142 140
129 106 149 233 279 102 158 196 201 153 163 131 142 210 218 204 269 118 141 158 171 189 199 277 310 269 249 200 176 209 211 237 262 274 255 282 285 286 284 288 295 291 289 283 283 296 293 283 286 284 272 264 260 251 219 192 195 200 185 198 194 187 185 188 189 185 189 176 180 169 174 170 165 163 158 157 164 160 159 154 150 150 144 133 143 139
94 91 142 165 96 200 236 228 165 172 180 177 172 199 189 172 208 186 243 39 105 193 247 156 265 268 259 152 221 207 226 233 267 160 265 272 279 283 293 292 280 292 288 276 281 277 280 288 295 302 313 327 215 204 199 198 199 198 198 201 190 187 190 186 186 188 176 178 169 172 165 162 159 155 154 155 156 151 150 149 147 138 135 137 145 143
143 121 100 144 198 180 200 24 295 310 65 182 166 214 185 196 148 186 208 264 355 250 117 187 267 283 159 193 208 222 236 226 248 287 278 280 282 287 288 281 285 266 274 282 282 279 268 266 267 268 272 257 229 210 198 197 203 206 208 198 202 192 198 192 184 177 169 166 165 164 157 151 152 149 152 148 149 147 145 140 134 142 136 135 135 120
107 99 87 328 313 318 324 298 324 324 134 304 305 59 143 195 191 194 169 187 183 237 229 283 258 258 184 142 202 215 230 256 300 228 252 284 289 292 283 287 296 305 287 277 269 271 268 264 270 251 221 215 224 211 205 201 196 191 191 195 189 203 188 179 172 165 159 155 150 147 144 147 145 145 147 147 147 143 140 136 137 138 128 132 130 126
133 270 116 80 24 347 346 337 335 341 58 185 165 204 151 101 105 165 99 90 247 206 164 152 248 247 241 315 316 327 346 297 292 271 229 261 281 282 280 282 284 290 293 288 276 267 290 291 270 249 231 214 214 218 205 196 193 187 198 192 191 189 182 170 162 156 151 147 140 144 142 142 146 143 142 138 138 138 136 136 133 131 131 130 128 134
145 180 142 141 152 170 199 206 213 207 190 222 219 175 190 181 168 154 206 200 234 215 174 216 247 347 269 345 345 326 323 299 219 246 262 225 257 280 294 300 307 306 293 289 284 290 258 246 257 271 270 261 246 232 207 199 188 177 169 190 183 161 157 161 152 148 140 142 140 143 143 143 142 141 138 135 133 138 139 137 136 134 132 136 135 137
156 176 183 183 175 189 203 196 80 112 104 192 212 181 207 211 200 198 194 187 225 210 185 230 228 304 314 316 318 302 332 298 301 216 241 245 245 242 253 276 290 298 289 278 270 264 283 262 241 233 242 246 252 247 237 193 179 173 169 170 164 155 155 158 146 145 142 147 145 143 146 145 141 135 133 135 135 134 136 136 136 135 136 137 137 138
105 168 206 197 206 191 116 156 184 141 181 203 137 203 192 183 188 195 198 226 111 94 251 235 173 243 236 290 303 315 307 293 287 292 268 284 274 279 295 300 312 303 285 278 267 255 248 254 244 231 235 229 222 209 216 211 192 178 174 173 166 157 156 159 153 154 151 146 142 142 141 138 133 132 132 130 132 134 131 127 126 124 126 131 133 136
166 196 209 180 212 141 183 147 164 157 179 169 181 183 187 202 195 205 223 220 130 204 243 200 182 226 216 200 226 242 252 249 250 271 291 285 291 304 330 336 315 295 295 284 268 252 244 245 243 236 230 229 218 211 203 193 192 187 179 174 170 166 175 164 155 152 147 143 145 143 135 129 126 124 128 132 131 131 130 127 123 122 124 124 119 119
142 218 150 181 185 131 181 143 179 155 148 159 187 192 201 198 211 215 225 222 221 241 250 246 257 244 188 215 212 229 238 263 284 295 291 297 290 302 294 286 280 280 275 274 270 250 234 241 240 231 225 224 217 213 206 201 193 186 179 179 176 172 169 156 155 150 150 150 145 137 138 134 133 135 135 137 138 135 132 129 131 130 127 123 122 125
133 238 92 89 121 214 96 72 71 84 148 187 226 215 211 211 216 218 222 228 237 256 255 270 281 272 230 197 233 271 304 304 291 288 275 273 285 285 276 269 276 278 277 278 282 268 243 240 240 236 228 225 216 211 200 201 201 191 181 172 171 174 165 161 150 155 154 151 143 143 140 140 141 141 145 142 135 137 139 140 140 136 131 131 136 135
132 182 34 106 143 274 338 121 84 72 45 214 240 230 224 217 222 224 227 221 222 240 243 253 258 254 135 203 222 278 307 272 260 266 271 271 266 280 287 275 266 267 270 270 270 275 260 246 241 233 229 223 218 213 204 193 185 185 192 176 174 165 157 159 159 159 160 148 148 150 151 149 146 148 147 146 149 149 145 140 138 137 137 137 137 134
147 125 143 142 147 219 269 131 139 93 58 300 254 233 217 206 213 208 224 218 217 225 231 230 244 240 209 169 171 215 225 238 246 249 260 261 261 247 245 252 257 254 257 264 265 261 253 243 237 234 233 222 217 211 209 187 174 190 185 177 174 150 164 168 167 160 154 154 154 157 155 153 155 154 154 157 149 144 143 143 140 141 146 147 143 132
146 156 176 168 175 189 104 133 102 125 213 235 246 210 183 205 193 207 232 227 229 197 229 228 248 117 115 161 204 217 213 230 228 237 228 235 252 256 253 249 250 254 256 254 250 246 247 244 244 237 227 220 214 206 185 183 186 181 172 170 159 165 170 162 161 156 153 154 162 161 159 158 156 154 154 147 146 147 148 150 151 147 141 135 135 135
173 178 177 169 156 164 189 120 131 192 227 237 26 212 177 186 184 210 229 225 222 224 244 257 258 188 210 212 214 217 210 229 246 261 270 236 215 233 247 251 250 247 250 255 259 243 235 234 236 239 230 223 203 180 166 181 172 153 150 160 164 171 160 165 156 159 160 164 165 161 159 158 157 154 152 152 151 152 153 150 143 145 149 147 145 147
173 158 119 52 103 60 96 167 166 222 233 334 291 21 230 163 201 213 266 269 254 226 225 237 243 243 238 243 248 240 220 269 300 266 250 255 209 237 241 245 249 245 247 245 244 257 247 231 225 223 229 186 169 178 179 179 164 158 164 156 168 170 173 166 167 168 166 168 169 169 167 163 160 156 157 157 157 157 156 153 155 151 149 137 127 121
150 124 149 151 231 150 194 171 230 338 330 281 237 206 143 159 150 166 223 247 224 221 212 231 239 236 246 250 243 242 112 330 299 285 282 263 249 232 236 253 255 254 248 253 245 251 266 261 231 231 192 173 181 177 188 173 169 166 159 166 173 172 177 176 178 178 176 175 173 173 171 168 162 162 164 163 160 162 159 156 154 151 147 136 140 142
159 159 182 141 241 135 133 194 326 271 254 250 217 207 180 165 161 165 178 262 200 215 210 221 234 233 241 245 245 124 98 342 289 283 269 241 241 250 249 251 266 264 260 264 305 308 306 299 292 230 184 188 196 195 174 167 168 164 168 173 169 171 179 186 191 182 180 182 178 173 170 170 167 164 165 167 169 164 158 148 142 151 155 148 148 147
12 75 159 171 152 93 145 174 204 211 238 113 161 169 182 159 135 128 96 257 186 198 194 202 219 228 230 234 212 111 113 218 258 260 270 265 260 239 251 253 250 261 271 278 278 285 287 269 232 212 190 182 204 195 166 164 163 168 181 180 180 179 181 193 191 185 186 181 170 167 167 166 164 165 167 170 169 163 159 161 157 148 140 137 133 134
145 127 149 139 162 189 178 177 222 214 244 221 179 187 166 139 109 96 198 267 221 200 201 190 205 216 230 207 133 148 149 212 244 253 245 258 269 260 216 260 278 279 283 302 291 254 257 233 137 144 183 204 210 163 168 165 172 181 181 183 179 191 200 198 190 175 153 145 154 156 158 161 164 167 169 168 155 152 153 143 141 149 141 133 133 136
152 219 178 200 186 171 176 226 349 288 261 239 215 152 143 141 120 139 212 229 256 162 102 168 195 211 182 157 164 169 218 204 217 228 301 293 323 297 294 296 253 260 280 306 299 321 267 216 203 209 210 209 163 156 163 165 170 189 186 176 183 208 196 150 130 137 144 141 145 152 156 156 165 163 162 157 152 143 140 149 149 144 141 138 135 133
347 92 325 49 164 180 197 199 236 267 230 174 288 159 171 99 189 206 220 199 146 189 224 188 190 209 163 181 183 208 227 222 247 305 290 278 264 278 277 274 299 298 272 261 292 340 314 288 261 271 119 130 146 154 159 165 180 184 178 179 203 189 136 134 134 135 139 146 148 146 148 151 146 147 147 139 141 143 144 141 140 144 141 141 143 143
172 164 190 193 172 59 96 212 354 249 221 138 125 103 286 169 224 166 170 221 195 181 167 194 204 211 167 205 213 214 239 266 248 246 263 276 287 280 296 308 309 309 317 337 335 339 336 232 224 185 161 133 148 153 161 165 178 180 176 199 192 134 135 134 134 136 137 138 142 145 147 147 148 148 147 149 153 150 147 148 145 145 145 144 144 144
183 168 192 203 176 169 170 193 215 214 133 169 141 179 196 196 186 151 127 185 226 157 174 186 228 205 187 192 204 225 233 257 295 265 267 275 268 280 283 274 275 304 304 301 282 304 338 162 81 79 67 126 147 158 164 170 177 176 181 192 140 131 124 128 130 130 133 139 142 142 144 147 145 144 150 153 153 151 150 154 151 149 154 155 151 151
210 201 171 180 190 169 201 210 59 241 150 182 177 163 169 201 167 193 153 166 172 229 194 149 218 217 197 201 211 185 237 222 234 252 230 259 281 272 268 275 268 261 271 317 323 336 21 153 145 91 59 36 96 122 162 178 175 172 183 160 131 134 135 131 132 136 140 146 148 148 145 143 151 155 157 163 160 157 157 152 155 153 162 156 158 159
327 183 142 102 250 315 345 116 210 114 182 200 278 45 184 191 188 132 170 160 247 190 176 183 210 172 144 164 161 229 210 237 234 263 251 262 266 269 262 288 278 85 72 79 36 32 86 85 85 91 85 46 36 60 94 94 143 172 157 122 130 128 131 135 137 144 149 148 151 152 149 147 146 153 161 164 172 172 166 161 164 160 160 166 169 169
268 111 120 167 95 116 245 124 149 199 195 201 201 19 281 241 207 192 175 197 220 148 183 265 151 153 164 155 191 221 250 239 247 262 250 267 266 264 253 242 241 201 197 202 316 45 82 105 101 97 101 84 19 46 54 70 59 98 115 131 125 131 136 143 146 146 150 154 150 149 158 159 161 159 159 162 153 148 154 160 162 161 166 173 170 171
249 194 147 197 148 181 255 190 207 305 224 216 195 221 239 228 237 221 218 194 135 145 167 198 158 151 144 177 204 201 248 254 237 264 274 257 262 268 256 236 213 162 357 56 53 79 80 82 98 95 91 70 20 38 53 61 80 113 122 128 138 138 138 143 154 155 158 153 150 156 162 160 151 153 157 166 165 159 163 179 179 175 179 180 179 172
154 132 213 159 157 302 6 350 279 72 77 228 231 242 232 214 208 222 226 256 280 279 256 225 190 185 171 211 164 183 231 259 228 248 265 273 263 254 239 210 189 174 132 111 63 92 114 115 106 119 109 101 68 85 78 78 84 109 127 130 134 138 137 140 134 131 136 141 144 155 158 154 161 165 162 164 170 170 172 179 185 186 188 313 350 217
112 180 176 114 171 199 186 177 161 124 228 242 229 219 224 216 146 140 128 218 230 240 249 254 261 199 201 204 193 185 228 269 255 198 243 246 246 225 173 151 143 133 132 143 107 106 103 117 135 135 140 150 117 97 97 89 84 90 118 136 148 150 147 148 141 143 153 155 159 158 155 156 164 166 166 168 169 154 99 34 110 143 181 193 176 137
161 177 146 178 182 215 183 183 190 188 198 214 206 216 220 166 153 178 206 211 227 241 330 271 285 308 287 275 183 196 241 255 280 225 243 250 232 190 176 164 160 161 159 146 109 95 119 148 145 137 128 128 106 109 113 113 110 111 118 136 149 153 147 144 147 151 158 163 178 176 174 169 170 176 167 169 164 165 159 128 80 161 171 173 176 178